Overview Statistics Trail Chart Weather Telemetry Raw packets
 

This is the latest recevied weather packets stored in our database for station/object KE8WMS. If no packets are shown the sender has not sent any weather packets the latest 10 day(s).

<< 95 96 97 98 99 100 101 >>
Time Temp. Humidity Pressure Rain* Wind** Luminosity Snow
1777114890 9.44° C 99% 1004.5 hPa 0 mm - 8 W/m² -
1777114586 10° C 99% 1004.4 hPa 0 mm - 6 W/m² -
1777114286 10° C 99% 1004.2 hPa 0 mm - 4 W/m² -
1777113983 10.56° C 99% 1004.2 hPa 0 mm - 2 W/m² -
1777113679 10.56° C 99% 1004.1 hPa 0 mm - 1 W/m² -
1777113378 11.11° C 99% 1004 hPa 0 mm - 1 W/m² -
1777113077 11.67° C 99% 1003.9 hPa 0 mm - 0 W/m² -
1777112774 11.67° C 99% 1003.7 hPa 0 mm - 0 W/m² -
1777112470 12.22° C 99% 1003.7 hPa 0 mm - 0 W/m² -
1777112166 12.78° C 99% 1003.6 hPa 0 mm - 0 W/m² -
1777111863 13.33° C 99% 1003.7 hPa 0 mm - 0 W/m² -
1777111560 13.33° C 99% 1003.5 hPa 0 mm - 0 W/m² -
1777111255 13.33° C 99% 1003.4 hPa 0 mm - 0 W/m² -
1777110952 13.89° C 99% 1003.4 hPa 1.78 mm - 0 W/m² -
1777110649 13.89° C 99% 1003.3 hPa 1.78 mm - 0 W/m² -
1777110344 13.89° C 99% 1003.3 hPa 0 mm - 0 W/m² -
1777110039 14.44° C 99% 1003.3 hPa 0 mm - 0 W/m² -
1777109736 14.44° C 99% 1003.1 hPa 0 mm - 0 W/m² -
1777109432 14.44° C 99% 1003.1 hPa 1.78 mm - 0 W/m² -
1777109128 15° C 99% 1003 hPa 4.83 mm - 0 W/m² -
1777108827 15° C 99% 1002.9 hPa 8.89 mm - 0 W/m² -
1777108526 15° C 99% 1003.3 hPa 8.89 mm - 0 W/m² -
1777108220 15.56° C 99% 1003.1 hPa 4.32 mm - 0 W/m² -
1777107916 15.56° C 99% 1003 hPa 3.05 mm - 0 W/m² -
1777107612 15.56° C 99% 1002.9 hPa 1.78 mm - 0 W/m² -

* Rain latest hour (hover to see other rain measurements)
** Current wind speed in m/s (hover to see current wind gust speed)